Weather Service Report


365 
ASUS46 KPQR 312310
RWROR 

OREGON REGIONAL WEATHER ROUNDUP
NATIONAL WEATHER SERVICE PORTLAND OR
400 PM PDT TUE MAY 31 2016

NOTE: "FAIR" INDICATES FEW OR NO CLOUDS BELOW 12,000 FEET WITH
NO SIGNIFICANT WEATHER AND/OR OBSTRUCTIONS TO VISIBILITY.

ORZ001>013-010000-
NORTHWEST OREGON

  
CITY           SKY/WX    TMP DP  RH WIND       PRES   REMARKS
ASTORIA        SUNNY     72  50  45 NW16      30.00S                  
NEWPORT        MOSUNNY   63  54  72 NW10      30.05S                  
PORTLAND       PTSUNNY   88  44  21 W12       29.93F                  
VANCOUVER WA   SUNNY     86  45  23 VRB7      29.93F                  
SCAPPOOSE      SUNNY     87  38  17 MISG      29.94F                  
HILLSBORO      SUNNY     86  39  19 N5        29.94F                  
AURORA         MOSUNNY   86  42  21 VRB3      29.95F                  
MCMINNVILLE    SUNNY     88  43  20 CALM      29.95F                  
SALEM          SUNNY     87  44  22 N6        29.93F                  
CORVALLIS        N/A     90  48  24 NE7       29.96F                  
EUGENE         PTSUNNY   83  53  35 NE8       29.95F                  
$$

ORZ021-028-010000-
SOUTHWEST OREGON

  
CITY           SKY/WX    TMP DP  RH WIND       PRES   REMARKS
NORTH BEND     MOSUNNY   64  55  72 N18       30.01S                  
BROOKINGS      MOSUNNY   68  53  58 SE8       29.90F                  
ROSEBURG       SUNNY     87  50  27 N9G16     29.92F                  
SEXTON SUMMIT  MOSUNNY   78  49  35 MISG      30.05F                  
MEDFORD        SUNNY     93  38  14 VRB5      29.87F                  
$$

ORZ014>016-041-010000-
COLUMBIA GORGE

  
CITY           SKY/WX    TMP DP  RH WIND       PRES   REMARKS
TROUTDALE      SUNNY     86  44  23 VRB3      29.92F                  
THE DALLES     SUNNY     87  26  11 N6        29.96F                  
$$

ORZ029>031-041-044-049-050-061>064-502-503-505>511-010000-
EASTERN OREGON

  
CITY           SKY/WX    TMP DP  RH WIND       PRES   REMARKS
REDMOND        SUNNY     82  31  15 N12       30.03F                  
BEND           SUNNY     81  28  15 N12       30.03F                  
PRINEVILLE     SUNNY     81  28  15 N5G12     30.04F                  
KLAMATH FALLS  SUNNY     82  35  18 VRB3      30.05F                  
LAKEVIEW       SUNNY     79  34  19 S3        30.11F                  
HERMISTON      SUNNY     86  35  16 N8        29.98F                  
PENDLETON      SUNNY     81  32  17 NE8       30.01F                  
JOHN DAY       SUNNY     80  23  11 NW7       30.06F                  
MEACHAM        SUNNY     71  34  25 VRB6      30.10F                  
LA GRANDE      SUNNY     79  34  19 NE7       30.05F                  
BAKER CITY     SUNNY     76  37  24 W10       30.07F                  
BURNS          SUNNY     77  23  13 SE7       30.09F                  
ROME             N/A     83  17   8 N9        30.05F                  
ONTARIO        SUNNY     83  30  14 VRB6      30.02F                  
$$
  

Return to Home page


Western Regional Climate Center, wrcc@dri.edu